Time,TemperatureF,DewpointF,PressureIn,WindDirection,WindDirectionDegrees,WindSpeedMPH,WindSpeedGustMPH,Humidity,HourlyPrecipIn,Conditions,Clouds,dailyrainin,SoftwareType,DateUTC
2013-04-23 00:04:00,53.5,46.8,30.00,SSE,154,8.0,9.0,78,0.00,,,0.00,Wunderground v.1.15,2013-04-23 05:04:00,
2013-04-23 00:09:00,53.4,46.7,30.00,SSE,162,7.0,9.0,78,0.00,,,0.00,Wunderground v.1.15,2013-04-23 05:09:00,
2013-04-23 00:15:00,53.5,46.8,30.00,SE,135,8.0,8.0,78,0.00,,,0.00,Wunderground v.1.15,2013-04-23 05:15:00,
2013-04-23 00:20:00,53.8,46.8,30.00,SE,138,8.0,8.0,77,0.00,,,0.00,Wunderground v.1.15,2013-04-23 05:20:00,
2013-04-23 00:26:00,53.8,46.8,30.00,SSE,166,8.0,8.0,77,0.00,,,0.00,Wunderground v.1.15,2013-04-23 05:26:00,
2013-04-23 00:32:00,53.7,47.0,30.00,SE,141,8.0,9.0,78,0.00,,,0.00,Wunderground v.1.15,2013-04-23 05:32:00,
2013-04-23 00:38:00,53.7,47.0,30.00,South,184,8.0,9.0,78,0.00,,,0.00,Wunderground v.1.15,2013-04-23 05:38:00,
2013-04-23 00:44:00,53.8,47.1,30.00,South,184,8.0,9.0,78,0.00,,,0.00,Wunderground v.1.15,2013-04-23 05:44:00,
2013-04-23 00:49:00,53.9,47.2,30.00,South,172,8.0,9.0,78,0.00,,,0.00,Wunderground v.1.15,2013-04-23 05:49:00,
2013-04-23 00:55:00,53.8,47.1,30.00,SSE,168,8.0,9.0,78,0.00,,,0.00,Wunderground v.1.15,2013-04-23 05:55:00,
2013-04-23 01:00:00,53.7,47.3,30.00,South,169,8.0,8.0,79,0.00,,,0.00,Wunderground v.1.15,2013-04-23 06:00:00,
2013-04-23 01:06:00,53.6,47.2,30.00,South,171,7.0,8.0,79,0.00,,,0.00,Wunderground v.1.15,2013-04-23 06:06:00,
2013-04-23 01:12:00,53.8,47.4,30.00,SSW,212,7.0,9.0,79,0.00,,,0.00,Wunderground v.1.15,2013-04-23 06:12:00,
2013-04-23 01:18:00,53.4,47.7,30.01,WSW,239,9.0,13.0,81,0.00,,,0.00,Wunderground v.1.15,2013-04-23 06:18:00,
2013-04-23 01:23:00,53.7,48.0,30.01,SW,222,11.0,13.0,81,0.00,,,0.00,Wunderground v.1.15,2013-04-23 06:23:00,
2013-04-23 01:29:00,54.1,48.1,30.00,SW,222,10.0,13.0,80,0.00,,,0.00,Wunderground v.1.15,2013-04-23 06:29:00,
2013-04-23 01:35:00,53.9,48.2,30.00,SW,229,9.0,10.0,81,0.00,,,0.00,Wunderground v.1.15,2013-04-23 06:35:00,
2013-04-23 01:40:00,53.8,48.1,30.00,SW,220,7.0,7.0,81,0.00,,,0.00,Wunderground v.1.15,2013-04-23 06:40:00,
2013-04-23 01:45:00,53.8,48.1,30.00,SSW,205,6.0,7.0,81,0.00,,,0.00,Wunderground v.1.15,2013-04-23 06:45:00,
2013-04-23 01:51:00,54.1,48.1,29.99,South,177,6.0,6.0,80,0.00,,,0.00,Wunderground v.1.15,2013-04-23 06:51:00,
2013-04-23 01:57:00,54.3,48.3,29.99,SSW,207,5.0,6.0,80,0.00,,,0.00,Wunderground v.1.15,2013-04-23 06:57:00,
2013-04-23 02:02:00,54.4,48.4,29.98,SSW,212,5.0,5.0,80,0.00,,,0.00,Wunderground v.1.15,2013-04-23 07:02:00,
2013-04-23 02:08:00,54.3,48.6,29.98,SW,216,5.0,7.0,81,0.00,,,0.00,Wunderground v.1.15,2013-04-23 07:08:00,
2013-04-23 02:13:00,54.3,48.6,29.97,SW,227,5.0,5.0,81,0.00,,,0.00,Wunderground v.1.15,2013-04-23 07:13:00,
2013-04-23 02:18:00,54.2,48.5,29.97,SW,227,4.0,5.0,81,0.00,,,0.00,Wunderground v.1.15,2013-04-23 07:18:00,
2013-04-23 02:23:00,54.1,48.4,29.97,SSW,206,4.0,4.0,81,0.00,,,0.00,Wunderground v.1.15,2013-04-23 07:23:00,
2013-04-23 02:28:00,54.1,48.4,29.96,SW,220,2.0,4.0,81,0.00,,,0.00,Wunderground v.1.15,2013-04-23 07:28:00,
2013-04-23 02:33:00,54.0,48.3,29.95,SW,222,1.0,2.0,81,0.00,,,0.00,Wunderground v.1.15,2013-04-23 07:33:00,
2013-04-23 02:38:00,53.9,48.5,29.96,SW,215,2.0,4.0,82,0.00,,,0.00,Wunderground v.1.15,2013-04-23 07:38:00,
2013-04-23 02:43:00,53.9,48.5,29.95,SSE,165,3.0,5.0,82,0.00,,,0.00,Wunderground v.1.15,2013-04-23 07:43:00,
2013-04-23 02:48:00,53.5,48.1,29.95,SSE,154,4.0,5.0,82,0.00,,,0.00,Wunderground v.1.15,2013-04-23 07:48:00,
2013-04-23 02:53:00,53.0,48.0,29.96,SSE,166,4.0,4.0,83,0.00,,,0.00,Wunderground v.1.15,2013-04-23 07:53:00,
2013-04-23 02:58:00,53.5,48.1,29.96,South,185,5.0,7.0,82,0.00,,,0.00,Wunderground v.1.15,2013-04-23 07:58:00,
2013-04-23 03:04:00,53.6,48.2,29.96,SSE,167,5.0,6.0,82,0.00,,,0.00,Wunderground v.1.15,2013-04-23 08:04:00,
2013-04-23 03:09:00,53.8,48.4,29.96,SSW,204,5.0,6.0,82,0.00,,,0.00,Wunderground v.1.15,2013-04-23 08:09:00,
2013-04-23 03:14:00,54.0,48.3,29.96,South,190,5.0,7.0,81,0.00,,,0.00,Wunderground v.1.15,2013-04-23 08:14:00,
2013-04-23 03:19:00,54.0,48.3,29.96,SSW,211,5.0,7.0,81,0.00,,,0.00,Wunderground v.1.15,2013-04-23 08:19:00,
2013-04-23 03:24:00,53.8,48.4,29.96,SSE,168,5.0,5.0,82,0.00,,,0.00,Wunderground v.1.15,2013-04-23 08:24:00,
2013-04-23 03:29:00,53.7,48.3,29.96,SE,135,4.0,5.0,82,0.00,,,0.00,Wunderground v.1.15,2013-04-23 08:29:00,
2013-04-23 03:34:00,53.3,48.3,29.96,South,172,5.0,6.0,83,0.00,,,0.00,Wunderground v.1.15,2013-04-23 08:34:00,
2013-04-23 03:39:00,53.0,48.3,29.95,SSE,165,5.0,6.0,84,0.00,,,0.00,Wunderground v.1.15,2013-04-23 08:39:00,
2013-04-23 03:44:00,52.8,48.4,29.95,SSW,198,5.0,5.0,85,0.00,,,0.00,Wunderground v.1.15,2013-04-23 08:44:00,
2013-04-23 03:49:00,53.1,48.4,29.95,South,171,5.0,7.0,84,0.00,,,0.00,Wunderground v.1.15,2013-04-23 08:49:00,
2013-04-23 03:54:00,53.2,48.5,29.94,SSE,156,5.0,7.0,84,0.00,,,0.00,Wunderground v.1.15,2013-04-23 08:54:00,
2013-04-23 03:59:00,53.0,48.3,29.94,SSE,162,6.0,7.0,84,0.00,,,0.00,Wunderground v.1.15,2013-04-23 08:59:00,
2013-04-23 04:04:00,53.4,48.0,29.94,SSE,157,7.0,9.0,82,0.00,,,0.00,Wunderground v.1.15,2013-04-23 09:04:00,
2013-04-23 04:09:00,53.8,47.8,29.94,South,171,7.0,9.0,80,0.00,,,0.00,Wunderground v.1.15,2013-04-23 09:09:00,
2013-04-23 04:15:00,53.8,47.8,29.93,South,182,6.0,7.0,80,0.00,,,0.00,Wunderground v.1.15,2013-04-23 09:15:00,
2013-04-23 04:20:00,53.6,47.6,29.92,SSE,166,7.0,7.0,80,0.00,,,0.00,Wunderground v.1.15,2013-04-23 09:20:00,
2013-04-23 04:25:00,53.7,47.7,29.91,SE,140,7.0,7.0,80,0.00,,,0.00,Wunderground v.1.15,2013-04-23 09:25:00,
2013-04-23 04:30:00,53.6,47.6,29.92,SSE,160,6.0,8.0,80,0.00,,,0.00,Wunderground v.1.15,2013-04-23 09:30:00,
2013-04-23 04:35:00,53.5,47.1,29.93,South,186,7.0,8.0,79,0.00,,,0.00,Wunderground v.1.15,2013-04-23 09:35:00,
2013-04-23 04:40:00,53.6,47.2,29.92,SSE,161,7.0,7.0,79,0.00,,,0.00,Wunderground v.1.15,2013-04-23 09:40:00,
2013-04-23 04:45:00,53.4,47.4,29.92,SSE,158,6.0,7.0,80,0.00,,,0.00,Wunderground v.1.15,2013-04-23 09:45:00,
2013-04-23 04:50:00,53.3,47.3,29.92,SE,145,6.0,6.0,80,0.00,,,0.00,Wunderground v.1.15,2013-04-23 09:50:00,
2013-04-23 04:55:00,53.0,47.3,29.91,SSE,147,6.0,6.0,81,0.00,,,0.00,Wunderground v.1.15,2013-04-23 09:55:00,
2013-04-23 05:00:00,52.8,47.1,29.91,SSW,194,6.0,6.0,81,0.00,,,0.00,Wunderground v.1.15,2013-04-23 10:00:00,
2013-04-23 05:06:00,52.4,47.1,29.91,SSE,167,6.0,6.0,82,0.00,,,0.00,Wunderground v.1.15,2013-04-23 10:06:00,
2013-04-23 05:11:00,52.2,47.2,29.90,SSE,156,6.0,7.0,83,0.00,,,0.00,Wunderground v.1.15,2013-04-23 10:11:00,
2013-04-23 05:16:00,52.0,47.3,29.91,SSE,162,6.0,8.0,84,0.00,,,0.00,Wunderground v.1.15,2013-04-23 10:16:00,
2013-04-23 05:21:00,52.0,47.3,29.90,SSE,162,7.0,8.0,84,0.00,,,0.00,Wunderground v.1.15,2013-04-23 10:21:00,
2013-04-23 05:26:00,52.1,47.4,29.90,South,173,7.0,8.0,84,0.00,,,0.00,Wunderground v.1.15,2013-04-23 10:26:00,
2013-04-23 05:31:00,52.5,47.5,29.90,SSE,166,8.0,8.0,83,0.00,,,0.00,Wunderground v.1.15,2013-04-23 10:31:00,
2013-04-23 05:36:00,52.8,47.5,29.90,SSE,156,8.0,8.0,82,0.00,,,0.00,Wunderground v.1.15,2013-04-23 10:36:00,
2013-04-23 05:42:00,53.1,47.4,29.92,SSE,154,8.0,10.0,81,0.00,,,0.00,Wunderground v.1.15,2013-04-23 10:42:00,
2013-04-23 05:47:00,53.3,47.6,29.92,SSW,208,9.0,11.0,81,0.00,,,0.00,Wunderground v.1.15,2013-04-23 10:47:00,
2013-04-23 05:53:00,53.2,47.5,29.92,SSE,164,8.0,9.0,81,0.00,,,0.00,Wunderground v.1.15,2013-04-23 10:53:00,
2013-04-23 05:58:00,53.1,47.4,29.92,South,179,7.0,9.0,81,0.00,,,0.00,Wunderground v.1.15,2013-04-23 10:58:00,
2013-04-23 06:04:00,53.0,47.3,29.92,SSW,197,7.0,7.0,81,0.00,,,0.00,Wunderground v.1.15,2013-04-23 11:04:00,
2013-04-23 06:10:00,53.1,47.7,29.92,SSW,213,7.0,7.0,82,0.00,,,0.00,Wunderground v.1.15,2013-04-23 11:10:00,
2013-04-23 06:15:00,53.1,47.7,29.92,SSW,202,7.0,8.0,82,0.00,,,0.00,Wunderground v.1.15,2013-04-23 11:15:00,
2013-04-23 06:21:00,53.0,47.7,29.92,SSW,211,7.0,7.0,82,0.00,,,0.00,Wunderground v.1.15,2013-04-23 11:21:00,
2013-04-23 06:26:00,53.0,47.7,29.91,SSW,204,7.0,7.0,82,0.00,,,0.00,Wunderground v.1.15,2013-04-23 11:26:00,
2013-04-23 06:31:00,53.2,47.8,29.91,SSW,194,7.0,7.0,82,0.00,,,0.00,Wunderground v.1.15,2013-04-23 11:31:00,
2013-04-23 06:37:00,53.2,47.8,29.91,South,190,7.0,10.0,82,0.00,,,0.00,Wunderground v.1.15,2013-04-23 11:37:00,
2013-04-23 06:42:00,53.3,47.9,29.91,SSW,197,7.0,7.0,82,0.00,,,0.00,Wunderground v.1.15,2013-04-23 11:42:00,
2013-04-23 06:47:00,53.3,47.9,29.90,SSW,209,7.0,9.0,82,0.00,,,0.00,Wunderground v.1.15,2013-04-23 11:47:00,
2013-04-23 06:53:00,53.4,48.0,29.90,SW,223,7.0,8.0,82,0.00,,,0.00,Wunderground v.1.15,2013-04-23 11:53:00,
2013-04-23 06:58:00,53.5,48.1,29.90,South,183,7.0,8.0,82,0.00,,,0.00,Wunderground v.1.15,2013-04-23 11:58:00,
2013-04-23 07:04:00,53.6,48.2,29.90,SSW,213,8.0,9.0,82,0.00,,,0.00,Wunderground v.1.15,2013-04-23 12:04:00,
2013-04-23 07:10:00,53.8,48.4,29.90,SSW,204,8.0,10.0,82,0.00,,,0.00,Wunderground v.1.15,2013-04-23 12:10:00,
2013-04-23 07:15:00,53.9,48.5,29.90,SSW,201,9.0,10.0,82,0.00,,,0.00,Wunderground v.1.15,2013-04-23 12:15:00,
2013-04-23 07:21:00,54.2,48.8,29.90,South,179,9.0,10.0,82,0.00,,,0.00,Wunderground v.1.15,2013-04-23 12:21:00,
2013-04-23 07:26:00,54.5,48.8,29.90,SW,227,9.0,11.0,81,0.00,,,0.00,Wunderground v.1.15,2013-04-23 12:26:00,
2013-04-23 07:32:00,54.8,48.7,29.90,SSW,203,8.0,10.0,80,0.00,,,0.00,Wunderground v.1.15,2013-04-23 12:32:00,
2013-04-23 07:37:00,55.0,48.9,29.90,SSW,202,9.0,12.0,80,0.00,,,0.00,Wunderground v.1.15,2013-04-23 12:37:00,
2013-04-23 07:43:00,55.2,48.8,29.90,South,190,9.0,11.0,79,0.00,,,0.00,Wunderground v.1.15,2013-04-23 12:43:00,
2013-04-23 07:48:00,55.4,49.0,29.90,SSE,155,9.0,11.0,79,0.00,,,0.00,Wunderground v.1.15,2013-04-23 12:48:00,
2013-04-23 07:54:00,55.5,49.1,29.90,SSW,211,10.0,12.0,79,0.00,,,0.00,Wunderground v.1.15,2013-04-23 12:54:00,
2013-04-23 07:59:00,55.6,49.2,29.90,SSW,208,10.0,12.0,79,0.00,,,0.00,Wunderground v.1.15,2013-04-23 12:59:00,
2013-04-23 08:05:00,55.8,49.4,29.90,SW,216,10.0,12.0,79,0.00,,,0.00,Wunderground v.1.15,2013-04-23 13:05:00,
2013-04-23 08:10:00,56.0,49.2,29.90,SSW,208,11.0,12.0,78,0.00,,,0.00,Wunderground v.1.15,2013-04-23 13:10:00,
2013-04-23 08:15:00,56.2,49.4,29.90,SSW,209,12.0,16.0,78,0.00,,,0.00,Wunderground v.1.15,2013-04-23 13:15:00,
2013-04-23 08:20:00,56.3,49.2,29.90,SW,218,13.0,13.0,77,0.00,,,0.00,Wunderground v.1.15,2013-04-23 13:20:00,
2013-04-23 08:26:00,56.4,49.6,29.90,SSW,213,13.0,15.0,78,0.00,,,0.00,Wunderground v.1.15,2013-04-23 13:26:00,
2013-04-23 08:31:00,56.5,49.7,29.90,SSW,207,13.0,13.0,78,0.00,,,0.00,Wunderground v.1.15,2013-04-23 13:31:00,
2013-04-23 08:37:00,56.7,49.9,29.91,SW,216,13.0,15.0,78,0.00,,,0.00,Wunderground v.1.15,2013-04-23 13:37:00,
2013-04-23 08:43:00,56.9,49.8,29.91,SW,220,13.0,14.0,77,0.00,,,0.00,Wunderground v.1.15,2013-04-23 13:43:00,
2013-04-23 08:48:00,57.1,50.3,29.90,SW,225,13.0,14.0,78,0.00,,,0.00,Wunderground v.1.15,2013-04-23 13:48:00,
2013-04-23 08:54:00,57.2,50.1,29.91,SW,225,12.0,13.0,77,0.00,,,0.00,Wunderground v.1.15,2013-04-23 13:54:00,
2013-04-23 08:59:00,57.4,50.2,29.91,SW,220,12.0,15.0,77,0.00,,,0.00,Wunderground v.1.15,2013-04-23 13:59:00,
2013-04-23 09:04:00,57.5,50.3,29.92,WSW,256,13.0,14.0,77,0.00,,,0.00,Wunderground v.1.15,2013-04-23 14:04:00,
2013-04-23 09:09:00,56.8,50.4,29.92,West,265,12.0,15.0,79,0.00,,,0.00,Wunderground v.1.15,2013-04-23 14:09:00,
2013-04-23 09:14:00,56.7,50.6,29.92,West,270,11.0,12.0,80,0.00,,,0.00,Wunderground v.1.15,2013-04-23 14:14:00,
2013-04-23 09:20:00,56.7,50.6,29.92,West,261,9.0,10.0,80,0.00,,,0.00,Wunderground v.1.15,2013-04-23 14:20:00,
2013-04-23 09:25:00,56.6,50.5,29.92,West,267,8.0,17.0,80,0.00,,,0.00,Wunderground v.1.15,2013-04-23 14:25:00,
2013-04-23 09:30:00,56.3,50.2,29.92,West,271,10.0,15.0,80,0.00,,,0.00,Wunderground v.1.15,2013-04-23 14:30:00,
2013-04-23 09:36:00,56.0,50.6,29.92,WSW,244,11.0,15.0,82,0.00,,,0.00,Wunderground v.1.15,2013-04-23 14:36:00,
2013-04-23 09:41:00,55.7,50.6,29.92,WSW,240,11.0,12.0,83,0.00,,,0.00,Wunderground v.1.15,2013-04-23 14:41:00,
2013-04-23 09:47:00,55.4,51.0,29.91,WSW,254,10.0,12.0,85,0.00,,,0.00,Wunderground v.1.15,2013-04-23 14:47:00,
2013-04-23 09:52:00,55.5,51.1,29.91,WSW,244,9.0,10.0,85,0.00,,,0.00,Wunderground v.1.15,2013-04-23 14:52:00,
2013-04-23 09:58:00,55.5,50.7,29.91,WSW,239,10.0,12.0,84,0.00,,,0.00,Wunderground v.1.15,2013-04-23 14:58:00,
2013-04-23 10:04:00,55.6,51.2,29.91,SW,235,10.0,11.0,85,0.00,,,0.00,Wunderground v.1.15,2013-04-23 15:04:00,
2013-04-23 10:10:00,55.6,50.8,29.91,WSW,241,10.0,14.0,84,0.00,,,0.00,Wunderground v.1.15,2013-04-23 15:10:00,
2013-04-23 10:15:00,55.6,50.8,29.91,WSW,240,12.0,14.0,84,0.00,,,0.00,Wunderground v.1.15,2013-04-23 15:15:00,
2013-04-23 10:21:00,55.5,51.1,29.91,WSW,253,11.0,12.0,85,0.00,,,0.00,Wunderground v.1.15,2013-04-23 15:21:00,
2013-04-23 10:26:00,55.4,51.3,29.91,WSW,243,10.0,12.0,86,0.00,,,0.00,Wunderground v.1.15,2013-04-23 15:26:00,
2013-04-23 10:32:00,55.3,51.2,29.91,WSW,239,9.0,11.0,86,0.00,,,0.00,Wunderground v.1.15,2013-04-23 15:32:00,
2013-04-23 10:37:00,55.2,51.4,29.91,WSW,254,9.0,11.0,87,0.00,,,0.00,Wunderground v.1.15,2013-04-23 15:37:00,
2013-04-23 10:42:00,55.1,51.3,29.92,West,267,10.0,12.0,87,0.00,,,0.00,Wunderground v.1.15,2013-04-23 15:42:00,
2013-04-23 10:48:00,55.1,51.6,29.92,WSW,255,10.0,12.0,88,0.00,,,0.00,Wunderground v.1.15,2013-04-23 15:48:00,
2013-04-23 10:53:00,55.0,51.5,29.92,WSW,244,9.0,10.0,88,0.00,,,0.00,Wunderground v.1.15,2013-04-23 15:53:00,
2013-04-23 10:59:00,54.8,51.3,29.92,WNW,287,8.0,10.0,88,0.00,,,0.00,Wunderground v.1.15,2013-04-23 15:59:00,
2013-04-23 11:05:00,54.6,51.4,29.92,WSW,256,7.0,9.0,89,0.00,,,0.00,Wunderground v.1.15,2013-04-23 16:05:00,
2013-04-23 11:11:00,54.6,51.7,29.92,West,272,5.0,9.0,90,0.00,,,0.00,Wunderground v.1.15,2013-04-23 16:11:00,
2013-04-23 11:16:00,54.5,51.3,29.92,West,277,5.0,9.0,89,0.00,,,0.00,Wunderground v.1.15,2013-04-23 16:16:00,
2013-04-23 11:22:00,54.6,51.7,29.91,WNW,290,6.0,9.0,90,0.00,,,0.00,Wunderground v.1.15,2013-04-23 16:22:00,
2013-04-23 11:27:00,54.7,51.8,29.91,WSW,248,6.0,9.0,90,0.00,,,0.00,Wunderground v.1.15,2013-04-23 16:27:00,
2013-04-23 11:33:00,55.0,52.1,29.91,West,268,6.0,7.0,90,0.00,,,0.00,Wunderground v.1.15,2013-04-23 16:33:00,
2013-04-23 11:38:00,54.9,51.7,29.90,West,269,5.0,7.0,89,0.00,,,0.00,Wunderground v.1.15,2013-04-23 16:38:00,
2013-04-23 11:43:00,54.7,51.5,29.91,West,276,6.0,9.0,89,0.00,,,0.00,Wunderground v.1.15,2013-04-23 16:43:00,
2013-04-23 11:48:00,54.4,51.2,29.91,West,280,6.0,9.0,89,0.00,,,0.00,Wunderground v.1.15,2013-04-23 16:48:00,
2013-04-23 11:53:00,54.5,51.6,29.91,West,275,5.0,7.0,90,0.00,,,0.00,Wunderground v.1.15,2013-04-23 16:53:00,
2013-04-23 11:58:00,54.4,51.5,29.91,West,275,6.0,9.0,90,0.00,,,0.00,Wunderground v.1.15,2013-04-23 16:58:00,
2013-04-23 12:04:00,53.7,50.8,29.91,West,267,6.0,12.0,90,0.00,,,0.00,Wunderground v.1.15,2013-04-23 17:04:00,
2013-04-23 12:09:00,52.7,49.8,29.90,WNW,292,8.0,13.0,90,0.00,,,0.00,Wunderground v.1.15,2013-04-23 17:09:00,
2013-04-23 12:14:00,52.3,49.8,29.90,WNW,282,10.0,11.0,91,0.00,,,0.00,Wunderground v.1.15,2013-04-23 17:14:00,
2013-04-23 12:20:00,52.0,49.5,29.91,WNW,298,10.0,10.0,91,0.00,,,0.00,Wunderground v.1.15,2013-04-23 17:20:00,
2013-04-23 12:26:00,51.5,49.0,29.91,WNW,292,11.0,12.0,91,0.00,,,0.00,Wunderground v.1.15,2013-04-23 17:26:00,
2013-04-23 12:31:00,51.4,48.9,29.90,NW,313,11.0,11.0,91,0.00,,,0.00,Wunderground v.1.15,2013-04-23 17:31:00,
2013-04-23 12:37:00,50.9,48.4,29.90,WNW,293,10.0,12.0,91,0.00,,,0.00,Wunderground v.1.15,2013-04-23 17:37:00,
2013-04-23 12:42:00,50.6,48.1,29.90,WNW,300,11.0,13.0,91,0.00,,,0.00,Wunderground v.1.15,2013-04-23 17:42:00,
2013-04-23 12:47:00,50.4,47.9,29.90,WNW,297,10.0,13.0,91,0.00,,,0.00,Wunderground v.1.15,2013-04-23 17:47:00,
2013-04-23 12:52:00,50.2,47.7,29.90,WNW,303,9.0,11.0,91,0.00,,,0.00,Wunderground v.1.15,2013-04-23 17:52:00,
2013-04-23 12:57:00,49.9,47.4,29.91,NW,319,11.0,15.0,91,0.00,,,0.01,Wunderground v.1.15,2013-04-23 17:57:00,
2013-04-23 13:03:00,49.5,47.0,29.91,NW,306,13.0,14.0,91,0.00,,,0.01,Wunderground v.1.15,2013-04-23 18:03:00,
2013-04-23 13:08:00,48.9,46.4,29.91,WNW,294,15.0,19.0,91,0.05,,,0.02,Wunderground v.1.15,2013-04-23 18:08:00,
2013-04-23 13:13:00,48.5,46.3,29.91,WNW,297,17.0,18.0,92,0.05,,,0.02,Wunderground v.1.15,2013-04-23 18:13:00,
2013-04-23 13:18:00,47.8,45.3,29.91,NW,308,18.0,23.0,91,0.05,,,0.02,Wunderground v.1.15,2013-04-23 18:18:00,
2013-04-23 13:23:00,47.0,44.5,29.91,NW,306,21.0,25.0,91,0.04,,,0.02,Wunderground v.1.15,2013-04-23 18:23:00,
2013-04-23 13:28:00,46.1,43.6,29.91,WNW,295,23.0,25.0,91,0.00,,,0.02,Wunderground v.1.15,2013-04-23 18:28:00,
2013-04-23 13:34:00,45.7,43.2,29.91,WNW,301,22.0,25.0,91,0.00,,,0.02,Wunderground v.1.15,2013-04-23 18:34:00,
2013-04-23 13:39:00,45.5,43.0,29.91,NW,306,20.0,25.0,91,0.00,,,0.03,Wunderground v.1.15,2013-04-23 18:39:00,
2013-04-23 13:44:00,45.2,42.7,29.91,NW,313,18.0,23.0,91,0.00,,,0.03,Wunderground v.1.15,2013-04-23 18:44:00,
2013-04-23 13:49:00,45.1,42.9,29.90,WNW,293,18.0,23.0,92,0.00,,,0.03,Wunderground v.1.15,2013-04-23 18:49:00,
2013-04-23 13:54:00,45.0,42.8,29.90,NW,306,16.0,17.0,92,0.04,,,0.04,Wunderground v.1.15,2013-04-23 18:54:00,
2013-04-23 13:59:00,45.0,42.8,29.90,WNW,296,13.0,17.0,92,0.04,,,0.04,Wunderground v.1.15,2013-04-23 18:59:00,
2013-04-23 14:05:00,45.0,42.8,29.90,North,351,12.0,13.0,92,0.04,,,0.04,Wunderground v.1.15,2013-04-23 19:05:00,
2013-04-23 14:11:00,45.0,42.5,29.90,NNW,342,11.0,11.0,91,0.00,,,0.04,Wunderground v.1.15,2013-04-23 19:11:00,
2013-04-23 14:16:00,44.8,42.3,29.90,North,349,11.0,16.0,91,0.00,,,0.04,Wunderground v.1.15,2013-04-23 19:16:00,
2013-04-23 14:21:00,44.8,42.3,29.89,NNW,348,11.0,13.0,91,0.00,,,0.05,Wunderground v.1.15,2013-04-23 19:21:00,
2013-04-23 14:27:00,44.7,42.2,29.89,NNW,338,12.0,14.0,91,0.00,,,0.05,Wunderground v.1.15,2013-04-23 19:27:00,
2013-04-23 14:32:00,44.5,42.0,29.89,NNW,330,12.0,13.0,91,0.00,,,0.05,Wunderground v.1.15,2013-04-23 19:32:00,
2013-04-23 14:38:00,44.5,42.3,29.88,North,349,11.0,13.0,92,0.00,,,0.05,Wunderground v.1.15,2013-04-23 19:38:00,
2013-04-23 14:44:00,44.6,42.4,29.87,North,352,11.0,13.0,92,0.00,,,0.05,Wunderground v.1.15,2013-04-23 19:44:00,
2013-04-23 14:49:00,44.6,42.4,29.87,NNW,345,11.0,13.0,92,0.00,,,0.05,Wunderground v.1.15,2013-04-23 19:49:00,
2013-04-23 14:55:00,44.7,42.5,29.87,North,351,11.0,14.0,92,0.00,,,0.05,Wunderground v.1.15,2013-04-23 19:55:00,
2013-04-23 15:00:00,44.5,42.0,29.86,NNW,348,13.0,13.0,91,0.00,,,0.05,Wunderground v.1.15,2013-04-23 20:00:00,
2013-04-23 15:06:00,44.6,42.1,29.86,North,5,13.0,14.0,91,0.00,,,0.05,Wunderground v.1.15,2013-04-23 20:06:00,
2013-04-23 15:11:00,44.8,42.6,29.86,North,2,11.0,13.0,92,0.00,,,0.05,Wunderground v.1.15,2013-04-23 20:11:00,
2013-04-23 15:16:00,44.8,42.6,29.86,NNW,345,11.0,14.0,92,0.00,,,0.05,Wunderground v.1.15,2013-04-23 20:16:00,
2013-04-23 15:22:00,44.8,42.6,29.86,North,352,10.0,11.0,92,0.00,,,0.05,Wunderground v.1.15,2013-04-23 20:22:00,
2013-04-23 15:28:00,45.1,42.9,29.86,North,357,9.0,11.0,92,0.00,,,0.05,Wunderground v.1.15,2013-04-23 20:28:00,
2013-04-23 15:33:00,45.2,43.0,29.85,NNE,31,7.0,10.0,92,0.00,,,0.05,Wunderground v.1.15,2013-04-23 20:33:00,
2013-04-23 15:38:00,45.3,43.1,29.86,North,356,5.0,10.0,92,0.00,,,0.05,Wunderground v.1.15,2013-04-23 20:38:00,
2013-04-23 15:43:00,45.3,43.1,29.85,NE,35,5.0,6.0,92,0.00,,,0.05,Wunderground v.1.15,2013-04-23 20:43:00,
2013-04-23 15:48:00,45.0,42.8,29.86,North,360,5.0,6.0,92,0.00,,,0.06,Wunderground v.1.15,2013-04-23 20:48:00,
2013-04-23 15:53:00,44.8,42.6,29.86,North,356,5.0,9.0,92,0.00,,,0.06,Wunderground v.1.15,2013-04-23 20:53:00,
2013-04-23 15:59:00,44.5,42.3,29.86,North,351,7.0,9.0,92,0.06,,,0.07,Wunderground v.1.15,2013-04-23 20:59:00,
2013-04-23 16:05:00,44.4,42.2,29.86,North,353,7.0,8.0,92,0.11,,,0.08,Wunderground v.1.15,2013-04-23 21:05:00,
2013-04-23 16:10:00,44.4,42.2,29.87,NW,318,6.0,6.0,92,0.16,,,0.09,Wunderground v.1.15,2013-04-23 21:10:00,
2013-04-23 16:15:00,44.4,42.5,29.87,NNW,336,6.0,9.0,93,0.11,,,0.10,Wunderground v.1.15,2013-04-23 21:15:00,
2013-04-23 16:20:00,44.3,42.4,29.87,NNW,344,7.0,7.0,93,0.18,,,0.12,Wunderground v.1.15,2013-04-23 21:20:00,
2013-04-23 16:25:00,44.3,42.4,29.86,NNW,348,8.0,9.0,93,0.18,,,0.13,Wunderground v.1.15,2013-04-23 21:25:00,
2013-04-23 16:30:00,44.3,42.4,29.87,WNW,299,9.0,9.0,93,0.14,,,0.14,Wunderground v.1.15,2013-04-23 21:30:00,
2013-04-23 16:35:00,44.1,42.2,29.87,WNW,301,9.0,11.0,93,0.09,,,0.15,Wunderground v.1.15,2013-04-23 21:35:00,
2013-04-23 16:40:00,44.0,42.1,29.87,WNW,284,10.0,13.0,93,0.09,,,0.15,Wunderground v.1.15,2013-04-23 21:40:00,
2013-04-23 16:45:00,43.7,41.5,29.87,NW,321,11.0,16.0,92,0.05,,,0.15,Wunderground v.1.15,2013-04-23 21:45:00,
2013-04-23 16:50:00,43.3,41.1,29.87,NW,325,13.0,17.0,92,0.05,,,0.16,Wunderground v.1.15,2013-04-23 21:50:00,
2013-04-23 16:55:00,43.1,41.2,29.87,NNW,337,14.0,17.0,93,0.05,,,0.16,Wunderground v.1.15,2013-04-23 21:55:00,
2013-04-23 17:00:00,42.8,40.6,29.87,NW,306,13.0,15.0,92,0.04,,,0.17,Wunderground v.1.15,2013-04-23 22:00:00,
2013-04-23 17:06:00,42.7,40.5,29.87,NW,320,14.0,15.0,92,0.13,,,0.18,Wunderground v.1.15,2013-04-23 22:06:00,
2013-04-23 17:11:00,42.5,40.3,29.87,WNW,303,13.0,14.0,92,0.13,,,0.19,Wunderground v.1.15,2013-04-23 22:11:00,
2013-04-23 17:16:00,42.4,40.5,29.87,NW,320,13.0,17.0,93,0.09,,,0.19,Wunderground v.1.15,2013-04-23 22:16:00,
2013-04-23 17:21:00,42.3,40.1,29.87,WNW,295,14.0,14.0,92,0.08,,,0.20,Wunderground v.1.15,2013-04-23 22:21:00,
2013-04-23 17:26:00,42.2,40.3,29.87,NW,324,14.0,17.0,93,0.07,,,0.20,Wunderground v.1.15,2013-04-23 22:26:00,
2013-04-23 17:31:00,42.1,40.2,29.88,NW,308,14.0,17.0,93,0.05,,,0.21,Wunderground v.1.15,2013-04-23 22:31:00,
2013-04-23 17:36:00,42.0,40.1,29.89,NW,315,15.0,21.0,93,0.12,,,0.22,Wunderground v.1.15,2013-04-23 22:36:00,
2013-04-23 17:41:00,42.0,40.1,29.88,NW,312,15.0,15.0,93,0.13,,,0.23,Wunderground v.1.15,2013-04-23 22:41:00,
2013-04-23 17:46:00,41.9,40.0,29.89,WNW,303,13.0,16.0,93,0.14,,,0.24,Wunderground v.1.15,2013-04-23 22:46:00,
2013-04-23 17:51:00,41.8,39.9,29.88,NNW,341,13.0,16.0,93,0.10,,,0.25,Wunderground v.1.15,2013-04-23 22:51:00,
2013-04-23 17:56:00,41.7,39.8,29.88,NW,322,14.0,20.0,93,0.20,,,0.27,Wunderground v.1.15,2013-04-23 22:56:00,
2013-04-23 18:02:00,41.5,39.6,29.88,NNW,331,15.0,15.0,93,0.10,,,0.28,Wunderground v.1.15,2013-04-23 23:02:00,
2013-04-23 18:07:00,41.3,39.4,29.88,NNW,334,15.0,22.0,93,0.21,,,0.30,Wunderground v.1.15,2013-04-23 23:07:00,
2013-04-23 18:12:00,41.3,39.4,29.89,NNW,339,15.0,16.0,93,0.14,,,0.31,Wunderground v.1.15,2013-04-23 23:12:00,
2013-04-23 18:17:00,41.3,39.4,29.89,NNW,339,15.0,18.0,93,0.11,,,0.32,Wunderground v.1.15,2013-04-23 23:17:00,
2013-04-23 18:22:00,41.1,39.2,29.88,NNW,338,15.0,16.0,93,0.19,,,0.33,Wunderground v.1.15,2013-04-23 23:22:00,
2013-04-23 18:27:00,41.1,39.2,29.87,North,353,16.0,21.0,93,0.24,,,0.35,Wunderground v.1.15,2013-04-23 23:27:00,
2013-04-23 18:32:00,41.0,39.1,29.87,North,352,16.0,20.0,93,0.08,,,0.35,Wunderground v.1.15,2013-04-23 23:32:00,
2013-04-23 18:38:00,41.0,39.1,29.88,NW,318,16.0,21.0,93,0.05,,,0.35,Wunderground v.1.15,2013-04-23 23:38:00,
2013-04-23 18:43:00,40.9,39.0,29.88,NNW,335,16.0,18.0,93,0.00,,,0.35,Wunderground v.1.15,2013-04-23 23:43:00,
2013-04-23 18:49:00,40.9,39.0,29.88,NNW,336,14.0,18.0,93,0.00,,,0.35,Wunderground v.1.15,2013-04-23 23:49:00,
2013-04-23 18:54:00,40.8,38.9,29.88,NNW,347,14.0,19.0,93,0.00,,,0.36,Wunderground v.1.15,2013-04-23 23:54:00,
2013-04-23 18:59:00,40.8,38.9,29.88,NNW,340,15.0,19.0,93,0.00,,,0.36,Wunderground v.1.15,2013-04-23 23:59:00,
2013-04-23 19:05:00,40.8,38.9,29.88,NNW,332,14.0,17.0,93,0.09,,,0.37,Wunderground v.1.15,2013-04-24 00:05:00,
2013-04-23 19:10:00,40.8,38.9,29.88,NNW,345,16.0,21.0,93,0.06,,,0.37,Wunderground v.1.15,2013-04-24 00:10:00,
2013-04-23 19:16:00,40.7,38.6,29.88,NW,325,19.0,21.0,92,0.04,,,0.37,Wunderground v.1.15,2013-04-24 00:16:00,
2013-04-23 19:21:00,40.7,38.6,29.89,NNW,344,18.0,19.0,92,0.00,,,0.37,Wunderground v.1.15,2013-04-24 00:21:00,
2013-04-23 19:26:00,40.6,38.5,29.89,NNW,348,18.0,21.0,92,0.00,,,0.37,Wunderground v.1.15,2013-04-24 00:26:00,
2013-04-23 19:32:00,40.6,38.5,29.88,North,353,18.0,21.0,92,0.00,,,0.37,Wunderground v.1.15,2013-04-24 00:32:00,
2013-04-23 19:37:00,40.6,38.5,29.88,North,5,18.0,21.0,92,0.00,,,0.37,Wunderground v.1.15,2013-04-24 00:37:00,
2013-04-23 19:42:00,40.5,38.4,29.88,NNW,345,18.0,18.0,92,0.00,,,0.37,Wunderground v.1.15,2013-04-24 00:42:00,
2013-04-23 19:47:00,40.4,38.5,29.90,North,349,17.0,20.0,93,0.00,,,0.37,Wunderground v.1.15,2013-04-24 00:47:00,
2013-04-23 19:52:00,40.3,38.2,29.89,North,353,17.0,24.0,92,0.00,,,0.37,Wunderground v.1.15,2013-04-24 00:52:00,
2013-04-23 19:57:00,39.9,37.8,29.88,North,349,20.0,25.0,92,0.00,,,0.37,Wunderground v.1.15,2013-04-24 00:57:00,
2013-04-23 20:03:00,39.7,37.6,29.88,North,358,20.0,25.0,92,0.00,,,0.38,Wunderground v.1.15,2013-04-24 01:03:00,
2013-04-23 20:08:00,39.6,37.5,29.89,North,2,19.0,25.0,92,0.10,,,0.39,Wunderground v.1.15,2013-04-24 01:08:00,
2013-04-23 20:14:00,39.5,37.6,29.88,NNW,346,18.0,22.0,93,0.12,,,0.40,Wunderground v.1.15,2013-04-24 01:14:00,
2013-04-23 20:19:00,39.4,37.5,29.87,North,11,18.0,23.0,93,0.06,,,0.40,Wunderground v.1.15,2013-04-24 01:19:00,
2013-04-23 20:24:00,39.3,37.4,29.88,NNW,335,20.0,23.0,93,0.04,,,0.40,Wunderground v.1.15,2013-04-24 01:24:00,
2013-04-23 20:29:00,39.3,37.4,29.88,NNW,344,19.0,23.0,93,0.00,,,0.40,Wunderground v.1.15,2013-04-24 01:29:00,
2013-04-23 20:34:00,39.3,37.4,29.88,NNW,347,18.0,23.0,93,0.00,,,0.40,Wunderground v.1.15,2013-04-24 01:34:00,
2013-04-23 20:39:00,39.3,37.4,29.88,North,353,19.0,23.0,93,0.00,,,0.40,Wunderground v.1.15,2013-04-24 01:39:00,
2013-04-23 20:44:00,39.3,37.4,29.90,NNW,345,19.0,21.0,93,0.00,,,0.40,Wunderground v.1.15,2013-04-24 01:44:00,
2013-04-23 20:49:00,39.3,37.4,29.90,North,360,18.0,21.0,93,0.00,,,0.40,Wunderground v.1.15,2013-04-24 01:49:00,
2013-04-23 20:54:00,39.3,37.4,29.90,North,352,16.0,19.0,93,0.00,,,0.40,Wunderground v.1.15,2013-04-24 01:54:00,
2013-04-23 20:59:00,39.2,37.1,29.90,NNW,345,17.0,22.0,92,0.00,,,0.40,Wunderground v.1.15,2013-04-24 01:59:00,
2013-04-23 21:05:00,39.2,37.3,29.90,NNW,342,17.0,19.0,93,0.00,,,0.40,Wunderground v.1.15,2013-04-24 02:05:00,
2013-04-23 21:10:00,39.1,37.0,29.90,North,2,16.0,18.0,92,0.00,,,0.40,Wunderground v.1.15,2013-04-24 02:10:00,
2013-04-23 21:15:00,38.9,36.8,29.91,NNW,342,17.0,22.0,92,0.00,,,0.40,Wunderground v.1.15,2013-04-24 02:15:00,
2013-04-23 21:21:00,38.9,36.8,29.91,NNW,347,18.0,19.0,92,0.00,,,0.40,Wunderground v.1.15,2013-04-24 02:21:00,
2013-04-23 21:27:00,38.8,36.7,29.91,North,8,17.0,21.0,92,0.00,,,0.40,Wunderground v.1.15,2013-04-24 02:27:00,
2013-04-23 21:32:00,38.8,36.7,29.91,North,353,17.0,19.0,92,0.00,,,0.40,Wunderground v.1.15,2013-04-24 02:32:00,
2013-04-23 21:37:00,38.7,36.6,29.92,NNW,344,16.0,19.0,92,0.00,,,0.40,Wunderground v.1.15,2013-04-24 02:37:00,
2013-04-23 21:42:00,38.7,36.6,29.92,NNW,329,15.0,17.0,92,0.00,,,0.40,Wunderground v.1.15,2013-04-24 02:42:00,
2013-04-23 21:47:00,38.7,36.9,29.92,North,352,14.0,18.0,93,0.00,,,0.40,Wunderground v.1.15,2013-04-24 02:47:00,
2013-04-23 21:52:00,38.7,36.9,29.92,NNW,340,13.0,15.0,93,0.00,,,0.40,Wunderground v.1.15,2013-04-24 02:52:00,
2013-04-23 21:57:00,38.6,36.5,29.92,NNW,347,14.0,20.0,92,0.00,,,0.40,Wunderground v.1.15,2013-04-24 02:57:00,
2013-04-23 22:03:00,38.6,36.5,29.92,North,353,16.0,17.0,92,0.00,,,0.40,Wunderground v.1.15,2013-04-24 03:03:00,
2013-04-23 22:09:00,38.5,36.7,29.92,North,353,14.0,17.0,93,0.00,,,0.40,Wunderground v.1.15,2013-04-24 03:09:00,
2013-04-23 22:14:00,38.5,36.7,29.92,NNW,342,14.0,15.0,93,0.00,,,0.40,Wunderground v.1.15,2013-04-24 03:14:00,
2013-04-23 22:20:00,38.5,36.7,29.93,North,353,13.0,13.0,93,0.00,,,0.40,Wunderground v.1.15,2013-04-24 03:20:00,
2013-04-23 22:25:00,38.4,36.6,29.92,NNW,335,13.0,16.0,93,0.00,,,0.40,Wunderground v.1.15,2013-04-24 03:25:00,
2013-04-23 22:31:00,38.4,36.6,29.92,NNW,344,13.0,14.0,93,0.00,,,0.40,Wunderground v.1.15,2013-04-24 03:31:00,
2013-04-23 22:36:00,38.3,36.5,29.92,NNW,342,13.0,15.0,93,0.00,,,0.40,Wunderground v.1.15,2013-04-24 03:36:00,
2013-04-23 22:41:00,38.3,36.5,29.93,NNW,336,13.0,14.0,93,0.00,,,0.40,Wunderground v.1.15,2013-04-24 03:41:00,
2013-04-23 22:47:00,38.1,36.0,29.92,NNW,348,14.0,16.0,92,0.00,,,0.40,Wunderground v.1.15,2013-04-24 03:47:00,
2013-04-23 22:53:00,37.9,35.8,29.92,NNW,343,15.0,17.0,92,0.00,,,0.40,Wunderground v.1.15,2013-04-24 03:53:00,
2013-04-23 22:58:00,37.7,35.6,29.92,North,351,16.0,23.0,92,0.00,,,0.40,Wunderground v.1.15,2013-04-24 03:58:00,
2013-04-23 23:01:00,37.7,35.6,29.92,North,351,16.0,17.0,92,0.00,,,0.40,Wunderground v.1.15,2013-04-24 04:01:00,
2013-04-23 23:03:00,37.7,35.6,29.92,NW,322,16.0,17.0,92,0.00,,,0.40,Wunderground v.1.15,2013-04-24 04:03:00,
2013-04-23 23:05:00,37.6,35.5,29.92,NW,318,15.0,17.0,92,0.00,,,0.40,Wunderground v.1.15,2013-04-24 04:05:00,
2013-04-23 23:06:00,37.6,35.5,29.92,NNW,336,15.0,17.0,92,0.00,,,0.40,Wunderground v.1.15,2013-04-24 04:06:00,
2013-04-23 23:11:00,37.5,35.4,29.92,NNW,334,15.0,22.0,92,0.00,,,0.40,Wunderground v.1.15,2013-04-24 04:11:00,
2013-04-23 23:13:00,37.4,35.3,29.91,NNW,344,16.0,22.0,92,0.00,,,0.40,Wunderground v.1.15,2013-04-24 04:13:00,
2013-04-23 23:18:00,37.4,35.6,29.92,NNW,342,15.0,22.0,93,0.00,,,0.40,Wunderground v.1.15,2013-04-24 04:18:00,
2013-04-23 23:23:00,37.3,35.2,29.93,NNW,331,14.0,16.0,92,0.00,,,0.40,Wunderground v.1.15,2013-04-24 04:23:00,
2013-04-23 23:28:00,37.3,35.5,29.93,NNW,341,13.0,16.0,93,0.00,,,0.40,Wunderground v.1.15,2013-04-24 04:28:00,
2013-04-23 23:34:00,37.3,35.5,29.93,NNW,333,11.0,13.0,93,0.00,,,0.40,Wunderground v.1.15,2013-04-24 04:34:00,
2013-04-23 23:39:00,37.4,35.6,29.93,NNW,344,12.0,15.0,93,0.00,,,0.40,Wunderground v.1.15,2013-04-24 04:39:00,
2013-04-23 23:45:00,37.5,35.7,29.93,NNW,329,12.0,15.0,93,0.00,,,0.40,Wunderground v.1.15,2013-04-24 04:45:00,
2013-04-23 23:50:00,37.6,35.8,29.94,NW,321,12.0,12.0,93,0.00,,,0.40,Wunderground v.1.15,2013-04-24 04:50:00,
2013-04-23 23:55:00,37.7,35.9,29.94,NNW,329,11.0,13.0,93,0.00,,,0.40,Wunderground v.1.15,2013-04-24 04:55:00,